[[{"header":{"parameterUnit":"m.s-1","parameterCategory":1,"la1":30.2991,"la2":30.254,"lo1":-89.0895,"lo2":-89.0444,"dy":0.0017,"dx":0.0017,"nx":28,"ny":28,"refTime":"2023-08-17T21:00:00:Z","depth":0,"parameterNumber":2,"parameterNumberName":"U-component_of_WINDS"},"data":[0,0,0,0,0,0,0,0,0,0,0,0,0,0,0,0,0,0,0,0,0,0,0,0,0,0,0,0,0,0,0,0,0,0,0,0,0,0,0,0,0,0,0,0,0,0,0,0,0,0,0,0,0,0,0,0,0,0,2.5394,2.5394,0,2.5433,2.5433,2.5434,2.5419,2.5418,2.5417,2.5416,2.5457,2.5459,2.5461,0,0,0,0,0,0,0,0,0,0,0,0,0,2.5308,2.531,2.5394,2.5394,2.5395,2.5433,2.5433,2.5434,2.5419,2.5418,2.5417,2.5416,2.5457,2.5459,2.5461,0,0,0,0,0,0,0,0,0,0,0,0,0,2.5346,2.531,2.5394,2.5392,2.5392,2.5433,2.5433,2.5434,2.5419,2.5418,2.5417,2.5416,2.5456,2.5459,2.5462,2.5506,0,0,2.547,2.5472,0,0,0,0,0,0,0,0,2.5344,2.5349,2.5392,2.5392,2.5393,2.542,2.5418,2.5458,2.542,2.5409,2.5416,2.5415,2.5446,2.545,2.546,2.5508,2.551,2.5471,2.5472,2.5474,2.5475,0,0,0,0,0,0,0,2.5342,2.5348,2.5409,2.5392,2.5393,2.539,2.5394,2.5426,2.5435,2.541,2.5409,2.5414,2.5446,2.5457,2.5461,2.5511,2.5471,2.5473,2.5475,2.5476,2.56,2.5601,0,0,0,0,0,0,2.5339,2.5346,2.5408,2.541,2.5364,2.5393,2.5397,2.5412,2.5434,2.5436,2.5415,2.5413,2.5453,2.5457,2.5462,2.5517,2.5474,2.5476,2.5478,2.5598,2.56,2.5602,0,0,0,0,0,0,2.5337,2.5344,2.5406,2.5378,2.5385,2.5395,2.5413,2.5414,2.5425,2.5438,2.544,2.5425,2.5452,2.5458,2.5496,2.5518,2.5478,2.548,2.5596,2.5599,2.5601,2.5626,0,0,0,0,0,0,2.5334,2.5344,2.536,2.5378,2.5387,2.5439,2.5414,2.5416,2.543,2.5428,2.5448,2.545,2.5451,2.5492,2.5499,2.5521,2.5483,2.5594,2.5597,2.56,2.5624,2.5629,2.5634,0,0,0,0,0,2.5331,2.5366,2.5361,2.5369,2.5408,2.544,2.5445,2.5446,2.5432,2.5449,2.5458,2.5449,2.5515,2.5496,2.5503,2.5527,2.5593,2.5597,2.56,2.5621,2.5628,2.5634,0,0,0,0,0,0,2.5349,2.5368,2.5363,2.5404,2.5421,2.5438,2.5459,2.5454,2.5475,2.5472,2.5473,2.5478,2.5517,2.5526,2.5504,2.5573,2.5552,2.5557,2.5565,2.5572,2.5577,2.5574,2.5485,0,0,0,0,0,2.5358,2.5383,2.5397,2.5432,2.5441,2.5449,2.5463,2.5463,2.548,2.5487,2.5498,2.5516,2.5541,2.5557,2.558,2.5625,2.563,2.5646,2.5651,2.5655,2.566,2.5686,2.5693,2.5613,2.5613,2.5613,0,0,2.5377,2.539,2.5405,2.5436,2.5449,2.5475,2.5455,2.5482,2.5502,2.5491,2.5528,2.5537,2.5557,2.5599,2.5618,2.5607,2.5683,2.566,2.5663,2.5665,2.569,2.5697,2.5704,2.5616,2.5615,2.5615,0,0,2.5423,2.5435,2.5466,2.548,2.55,2.5505,2.5513,2.5531,2.5537,2.5573,2.5566,2.559,2.5632,2.5647,2.566,2.5715,2.5708,2.5723,2.575,2.5775,2.5782,2.5787,2.5807,2.5815,2.5727,2.5727,2.5727,0,2.5443,2.5482,2.5483,2.5512,2.5526,2.5518,2.555,2.5564,2.559,2.5601,2.5589,2.5643,2.5656,2.5702,2.5716,2.5726,2.5736,2.572,2.5781,2.5786,2.5791,2.5811,2.5818,2.5729,2.5729,2.5729,2.5728,0,2.5506,2.5533,2.5556,2.5582,2.5599,2.563,2.5636,2.5654,2.5653,2.5659,2.5698,2.5713,2.574,2.5751,2.575,2.5798,2.5791,2.578,2.5759,2.5801,2.5819,2.5826,2.5731,2.5731,2.573,2.573,0,0,2.5564,2.5592,2.56,2.5613,2.5635,2.5656,2.5687,2.5714,2.5729,2.5748,2.5775,2.5812,2.5802,2.5817,2.5818,2.584,2.5884,2.5827,2.5827,2.5837,2.5938,2.5946,2.5955,2.588,2.5881,2.5882,2.5937,0,2.5612,2.5666,2.5669,2.5718,2.5743,2.5737,2.5764,2.5781,2.5789,2.5813,2.5821,2.5848,2.5833,2.5842,2.5864,2.5874,2.5904,2.587,2.5905,2.5906,2.59,2.5964,2.5972,2.6023,2.5944,2.5945,2.5946,0,2.5676,2.5698,2.5749,2.577,2.5781,2.5805,2.583,2.5852,2.5873,2.5877,2.5895,2.5893,2.5925,2.5904,2.5949,2.5926,2.5941,2.5948,2.595,2.5953,2.5928,2.5969,2.6039,2.6047,2.5957,2.5956,2.5955,0,2.5714,2.5756,2.5793,2.5804,2.5828,2.5845,2.5857,2.5875,2.5892,2.5914,2.5925,2.5951,2.5966,2.5986,2.5992,2.5976,2.6038,2.6016,2.6043,2.6043,2.6056,2.6055,2.6129,2.6066,2.6066,2.6065,2.6065,0,2.5768,2.58,2.581,2.5833,2.5869,2.5873,2.5908,2.5918,2.5936,2.5961,2.5957,2.5981,2.5987,2.6012,2.6017,2.6055,2.6061,2.6066,2.6067,2.6066,2.6066,2.6076,2.6072,2.6067,2.6067,2.6067,2.6066,0,2.5816,2.5824,2.5863,2.5884,2.589,2.5916,2.5934,2.5956,2.5964,2.5996,2.6004,2.6016,2.6046,2.6054,2.6089,2.6093,2.6137,2.6135,2.613,2.613,2.6157,2.6154,2.624,2.6251,2.618,2.6181,2.6181,0,2.585,2.5874,2.5898,2.5914,2.5926,2.5953,2.597,2.5975,2.5993,2.6019,2.6038,2.6068,2.6091,2.6139,2.6152,2.618,2.6178,2.6206,2.6182,2.6181,2.6179,2.6177,2.618,2.6211,2.6211,2.6212,2.6212,0,2.5909,2.5912,2.5937,2.5963,2.5984,2.6005,2.6025,2.6039,2.6047,2.6068,2.6098,2.6117,2.6154,2.6183,2.6212,2.6224,2.622,2.622,2.6228,2.6227,2.6224,2.6227,2.6143,2.6218,2.6217,2.6217,2.6217,2.6216,2.5951,2.5973,2.5994,2.6022,2.6038,2.6057,2.6079,2.6091,2.6116,2.6146,2.6148,2.6181,2.6203,2.624,2.6254,2.6281,2.6273,2.6284,2.6286,2.6289,2.6291,2.622,2.6286,2.6286,2.6286,2.6286,2.6286,0,2.6011,2.6024,2.605,2.6079,2.6101,2.6096,2.6119,2.6138,2.6167,2.6187,2.6211,2.6247,2.6276,2.6291,2.6321,2.6339,2.6338,2.6347,2.6345,2.6348,2.6297,2.6288,2.6347,2.6347,2.6347,2.6347,2.6347,2.6347,2.6045,2.6082,2.6088,2.6134,2.6147,2.618,2.6193,2.6212,2.6228,2.6268,2.6292,2.6302,2.6321,2.6352,2.6379,2.6383,2.6394,2.6403,2.6406,2.6358,2.6352,2.6346,2.6337,2.6406,2.6406,2.6456,2.6456,2.6456]},{"header":{"parameterUnit":"m.s-1","parameterCategory":1,"la1":30.2991,"la2":30.254,"lo1":-89.0895,"lo2":-89.0444,"dy":0.0017,"dx":0.0017,"nx":28,"ny":28,"refTime":"2023-08-17T21:00:00:Z","depth":0,"parameterNumber":3,"parameterNumberName":"V-component_of_WINDS"},"data":[0,0,0,0,0,0,0,0,0,0,0,0,0,0,0,0,0,0,0,0,0,0,0,0,0,0,0,0,0,0,0,0,0,0,0,0,0,0,0,0,0,0,0,0,0,0,0,0,0,0,0,0,0,0,0,0,0,0,-0.4325,-0.4326,0,-0.4343,-0.4343,-0.4343,-0.4344,-0.4344,-0.4343,-0.4343,-0.4361,-0.4362,-0.4363,0,0,0,0,0,0,0,0,0,0,0,0,0,-0.4294,-0.4295,-0.4325,-0.4326,-0.4326,-0.4343,-0.4343,-0.4343,-0.4344,-0.4344,-0.4343,-0.4343,-0.4361,-0.4362,-0.4363,0,0,0,0,0,0,0,0,0,0,0,0,0,-0.4309,-0.4295,-0.4325,-0.4328,-0.4329,-0.4343,-0.4343,-0.4343,-0.4344,-0.4344,-0.4343,-0.4343,-0.4361,-0.4362,-0.4363,-0.4376,0,0,-0.4366,-0.4366,0,0,0,0,0,0,0,0,-0.4309,-0.4311,-0.4328,-0.4328,-0.4328,-0.4341,-0.4339,-0.4354,-0.4344,-0.4338,-0.4343,-0.4343,-0.4355,-0.4356,-0.436,-0.4377,-0.4377,-0.4366,-0.4367,-0.4367,-0.4367,0,0,0,0,0,0,0,-0.4307,-0.431,-0.4332,-0.4328,-0.4328,-0.4329,-0.4331,-0.4342,-0.4348,-0.4339,-0.4339,-0.4341,-0.4355,-0.4359,-0.4361,-0.4378,-0.4366,-0.4367,-0.4368,-0.4368,-0.4408,-0.4408,0,0,0,0,0,0,-0.4306,-0.4309,-0.4332,-0.4333,-0.4317,-0.433,-0.4332,-0.4337,-0.4348,-0.4349,-0.4341,-0.4341,-0.4358,-0.436,-0.4361,-0.4379,-0.4367,-0.4368,-0.4369,-0.4407,-0.4408,-0.4408,0,0,0,0,0,0,-0.4305,-0.4308,-0.4331,-0.4321,-0.4324,-0.4331,-0.4337,-0.4338,-0.4342,-0.435,-0.4351,-0.4344,-0.4358,-0.436,-0.4373,-0.4379,-0.4369,-0.437,-0.4407,-0.4407,-0.4408,-0.4412,0,0,0,0,0,0,-0.4304,-0.4308,-0.4312,-0.4321,-0.4324,-0.4341,-0.4337,-0.4338,-0.4344,-0.4343,-0.4353,-0.4354,-0.4357,-0.4371,-0.4374,-0.438,-0.437,-0.4406,-0.4407,-0.4408,-0.4411,-0.4413,-0.4414,0,0,0,0,0,-0.4303,-0.4312,-0.4312,-0.4315,-0.433,-0.4342,-0.4344,-0.4347,-0.4344,-0.4349,-0.4354,-0.4354,-0.4378,-0.4372,-0.4375,-0.4382,-0.4406,-0.4407,-0.4408,-0.4411,-0.4412,-0.4414,0,0,0,0,0,0,-0.4303,-0.4313,-0.4313,-0.4325,-0.4333,-0.4342,-0.4348,-0.4349,-0.4357,-0.4356,-0.4361,-0.4363,-0.4376,-0.438,-0.4374,-0.4396,-0.4392,-0.4393,-0.4393,-0.4395,-0.4396,-0.4395,-0.4371,0,0,0,0,0,-0.4305,-0.4313,-0.4321,-0.4331,-0.4335,-0.4341,-0.4346,-0.4348,-0.4356,-0.4359,-0.4365,-0.4373,-0.4383,-0.4389,-0.4398,-0.4412,-0.4415,-0.4419,-0.442,-0.4421,-0.4422,-0.4432,-0.4434,-0.4411,-0.4411,-0.4411,0,0,-0.4307,-0.4314,-0.4319,-0.4331,-0.4337,-0.4347,-0.4343,-0.4353,-0.436,-0.4361,-0.4373,-0.4378,-0.4388,-0.4401,-0.4408,-0.4406,-0.4429,-0.4422,-0.4423,-0.4424,-0.4433,-0.4435,-0.4437,-0.4412,-0.4412,-0.4412,0,0,-0.4318,-0.4323,-0.4333,-0.4339,-0.4348,-0.4353,-0.4355,-0.4364,-0.4368,-0.4381,-0.4382,-0.4391,-0.4407,-0.4414,-0.4419,-0.4435,-0.4435,-0.4437,-0.4444,-0.4454,-0.4456,-0.4457,-0.4464,-0.4466,-0.4439,-0.4439,-0.4439,0,-0.432,-0.4334,-0.4338,-0.4348,-0.4354,-0.4355,-0.4366,-0.4372,-0.4384,-0.4388,-0.4385,-0.4407,-0.4413,-0.4429,-0.4433,-0.4437,-0.4441,-0.4436,-0.4455,-0.4457,-0.4458,-0.4465,-0.4467,-0.4439,-0.4439,-0.4439,-0.4439,0,-0.4337,-0.4347,-0.4354,-0.4366,-0.4373,-0.4383,-0.4389,-0.4395,-0.4398,-0.4402,-0.4417,-0.4424,-0.4436,-0.444,-0.4441,-0.4457,-0.4456,-0.4454,-0.4449,-0.4461,-0.4467,-0.4469,-0.444,-0.4439,-0.4439,-0.4439,0,0,-0.4347,-0.4362,-0.4365,-0.4371,-0.4382,-0.439,-0.4401,-0.4413,-0.4419,-0.4428,-0.4438,-0.4452,-0.4451,-0.4458,-0.446,-0.4469,-0.4482,-0.4466,-0.4466,-0.447,-0.4502,-0.4504,-0.4507,-0.4483,-0.4483,-0.4483,-0.4502,0,-0.4359,-0.4379,-0.4383,-0.44,-0.441,-0.4412,-0.4422,-0.4431,-0.4436,-0.4446,-0.4452,-0.4462,-0.446,-0.4464,-0.4472,-0.4479,-0.4489,-0.4477,-0.4493,-0.4494,-0.4491,-0.451,-0.4511,-0.4528,-0.4504,-0.4504,-0.4505,0,-0.4376,-0.4386,-0.4404,-0.4416,-0.442,-0.4428,-0.4441,-0.4449,-0.446,-0.4463,-0.4472,-0.4474,-0.4487,-0.4481,-0.45,-0.4492,-0.4499,-0.4504,-0.4504,-0.4506,-0.45,-0.4513,-0.4533,-0.4536,-0.4508,-0.4508,-0.4508,0,-0.4383,-0.44,-0.4414,-0.4419,-0.4433,-0.4439,-0.4445,-0.4455,-0.4463,-0.4473,-0.4478,-0.449,-0.4497,-0.4507,-0.4513,-0.4508,-0.4532,-0.4526,-0.4536,-0.4536,-0.4541,-0.4541,-0.4563,-0.4544,-0.4544,-0.4544,-0.4544,0,-0.4396,-0.4408,-0.4417,-0.4426,-0.4439,-0.4445,-0.4458,-0.4464,-0.4474,-0.4484,-0.4487,-0.4497,-0.4504,-0.4515,-0.452,-0.4536,-0.4538,-0.4542,-0.4544,-0.4543,-0.4542,-0.4547,-0.4547,-0.4545,-0.4544,-0.4544,-0.4544,0,-0.4406,-0.4413,-0.4428,-0.444,-0.4444,-0.4453,-0.4464,-0.4473,-0.4479,-0.4492,-0.4496,-0.4505,-0.4519,-0.4526,-0.4543,-0.4547,-0.4565,-0.4565,-0.4561,-0.4562,-0.4572,-0.4571,-0.4599,-0.4604,-0.458,-0.458,-0.4581,0,-0.4414,-0.4423,-0.4437,-0.4444,-0.4451,-0.4462,-0.447,-0.4477,-0.4485,-0.4499,-0.4506,-0.452,-0.4532,-0.4554,-0.4563,-0.4576,-0.4577,-0.4586,-0.4579,-0.4579,-0.4579,-0.4579,-0.458,-0.4587,-0.4588,-0.4588,-0.4588,0,-0.4429,-0.4432,-0.4443,-0.4456,-0.4466,-0.4476,-0.4487,-0.4493,-0.4501,-0.4511,-0.4525,-0.4534,-0.4552,-0.4566,-0.4581,-0.4588,-0.459,-0.459,-0.4593,-0.4593,-0.4591,-0.4593,-0.4566,-0.4589,-0.4589,-0.4589,-0.4589,-0.4589,-0.4439,-0.4448,-0.4459,-0.4472,-0.4481,-0.4491,-0.4501,-0.4508,-0.452,-0.4536,-0.4539,-0.4554,-0.4567,-0.4587,-0.4595,-0.4608,-0.4606,-0.461,-0.4611,-0.4612,-0.4614,-0.4588,-0.461,-0.461,-0.461,-0.461,-0.461,0,-0.4455,-0.4463,-0.4474,-0.4489,-0.45,-0.4501,-0.4513,-0.4522,-0.4536,-0.4547,-0.4559,-0.4576,-0.4591,-0.4602,-0.4617,-0.4625,-0.4627,-0.4629,-0.4629,-0.4631,-0.4613,-0.461,-0.4628,-0.4628,-0.4628,-0.4628,-0.4628,-0.4628,-0.4464,-0.4479,-0.4485,-0.4505,-0.4513,-0.4529,-0.4536,-0.4546,-0.4555,-0.4575,-0.4587,-0.4594,-0.4606,-0.4622,-0.4636,-0.4639,-0.4645,-0.4647,-0.4651,-0.4634,-0.4632,-0.463,-0.4627,-0.4648,-0.4648,-0.4667,-0.4667,-0.4668]}]]